Location: *
(17.3280°S, 114.7300°W)
Time: 05:42:36
(UTC+00:00)

SAR-Lupe-1 - Pass Details

Date: 05 August 2020
Orbit: 480 x 486 km, 98.2° (Epoch: 15 July)

Event Time Altitude Azimuth Distance (km) Brightness Sun altitude
Rises 12:52:40 0° 175° (S) 2,571 7.7 -17.0°
Reaches altitude 10° 12:54:47 10° 180° (S) 1,684 6.7 -16.5°
Maximum altitude 12:58:18 53° 257° (WSW) 609 4.1 -15.7°
Drops below altitude 10° 13:01:48 10° 334° (NNW) 1,664 6.6 -14.9°
Sets 13:03:52 0° 339° (NNW) 2,537 7.6 -14.4°
